Location: *
(2.5500°S, 65.9667°W)
Time: 12:02:11
(UTC+00:00)

Fermi - Pass Details

Date: 26 October 2021
Orbit: 522 x 539 km, 25.6° (Epoch: 28 November)

Event Time Altitude Azimuth Distance (km) Brightness Sun altitude
Rises 23:27:27 0° 253° (WSW) 2,633 9.0 -18.8°
Reaches altitude 10° 23:29:46 10° 260° (W) 1,744 7.6 -19.3°
Maximum altitude 23:33:37 44° 332° (NNW) 723 4.4 -20.3°
Enters shadow 23:34:28 38° 7° (N) 802 4.4 -20.5°
